Home > Time Zones > World Clock > Weather > Italy > Rome > Past weeks

Flag for Italy Weather past 2 weeks in Rome, Italy

Now
75 °F

Clear.


Feels Like: 75 °F
Forecast: 71 / 94 °F
Wind: 1 mph from North

Location: Rome / Ciampino

Current Time: Aug 1, 2015 at 3:48:27 AM

Latest Report: Aug 1, 2015 at 3:20 AM


Visibility: 10 mi

Pressure: 29.83 "Hg

Humidity: 83%

Dew point: 70 °F

Location of RomeLocation

Historic Weather in Rome — Graph

°F

Rome temperature yesterday

Maximum temperature yesterday: 90 °F (at 1:20 PM)
Minimum temperature yesterday: 73 °F (at 5:50 AM)
Average temperature yesterday: 82 °F

Past Weeks' High & Low Weather Summary

 TemperatureHumidityPressure
High97 °F (Jul 17, 12:20 PM)89% (Jul 21, 3:50 AM)30.09 "Hg (Jul 21, 3:50 AM)
Low66 °F (Jul 29, 3:50 AM)22% (Jul 18, 1:50 PM)29.74 "Hg (Jul 30, 6:50 PM)
Average82 °F57%29.89 "Hg
* Reported Jul 17 2:20 AM — Aug 1 2:50 AM, Rome, Weather by CustomWeather, © 2015

Note: Actual official high and low records may vary slightly from our data, if they occured in-between our weather recording intervals... More about our weather records

Advertising

Rome weather history for previous 24 hours

 ConditionsComfort  
Time TempWeatherWind HumidityBarometerVisibility
2:50 AM
Sat, Aug 1
93 °FPassing clouds.3 mph44%29.86 "HgN/A
2:20 AM77 °FClear.3 mph74%29.86 "Hg10 mi
1:50 AM77 °FClear.5 mph79%29.86 "Hg10 mi
1:20 AM77 °FClear.5 mph79%29.86 "Hg10 mi
12:50 AM77 °FClear.1 mph83%29.86 "Hg10 mi
12:20 AM77 °FClear.3 mph79%29.86 "Hg10 mi
11:50 PM
Fri, Jul 31
77 °FClear.1 mph83%29.86 "Hg10 mi
11:20 PM79 °FPassing clouds.1 mph79%29.86 "HgN/A
10:50 PM79 °FPassing clouds.1 mph84%29.86 "HgN/A
10:20 PM81 °FPassing clouds.1 mph79%29.86 "HgN/A
9:50 PM81 °FPassing clouds.2 mph79%29.83 "HgN/A
9:20 PM82 °FPassing clouds.5 mph70%29.83 "HgN/A
8:50 PM82 °FPassing clouds.3 mph66%29.83 "HgN/A
8:20 PM84 °FPassing clouds.5 mph62%29.83 "HgN/A
7:50 PM84 °FSunny.7 mph66%29.83 "Hg10 mi
7:20 PM86 °FPassing clouds.7 mph62%29.80 "HgN/A
6:50 PM88 °FScattered clouds.7 mph59%29.83 "HgN/A
6:20 PM88 °FScattered clouds.8 mph55%29.83 "HgN/A
5:50 PM88 °FScattered clouds.7 mph55%29.83 "HgN/A
5:20 PM88 °FScattered clouds.7 mph59%29.80 "HgN/A
4:50 PM88 °FScattered clouds.7 mph59%29.80 "HgN/A
4:20 PM90 °FScattered clouds.9 mph55%29.80 "HgN/A
3:50 PM88 °FScattered clouds.7 mph59%29.83 "HgN/A
3:20 PM90 °FScattered clouds.7 mph55%29.83 "HgN/A
2:50 PM90 °FScattered clouds.9 mph55%29.83 "HgN/A
2:20 PM88 °FScattered clouds.7 mph55%29.83 "HgN/A
1:50 PM88 °FScattered clouds.8 mph59%29.83 "HgN/A
1:20 PM90 °FScattered clouds.7 mph52%29.83 "HgN/A
12:50 PM88 °FScattered clouds.6 mph52%29.83 "HgN/A
12:20 PM88 °FScattered clouds.5 mph52%29.83 "HgN/A
11:50 AM86 °FPassing clouds.5 mph49%29.83 "HgN/A
11:20 AM84 °FPassing clouds.3 mph51%29.83 "HgN/A
10:50 AM81 °FScattered clouds.3 mph70%29.83 "HgN/A
10:20 AM79 °FScattered clouds.2 mph74%29.83 "HgN/A
9:20 AM77 °FPartly sunny.6 mph79%29.83 "HgN/A
8:50 AM79 °FPartly sunny.2 mph74%29.83 "HgN/A
8:20 AM77 °FPartly sunny.2 mph69%29.83 "HgN/A
7:50 AM77 °FPartly sunny.8 mph65%29.80 "HgN/A
7:20 AM75 °FPartly sunny.5 mph74%29.80 "HgN/A
6:50 AM73 °FPassing clouds.5 mph89%29.83 "HgN/A
5:50 AM73 °FPassing clouds.1 mph83%29.83 "HgN/A
5:20 AM75 °FLight rain. Passing clouds.6 mph78%29.83 "HgN/A
4:50 AM75 °FPassing clouds.1 mph83%29.83 "HgN/A
4:20 AM75 °FPassing clouds.2 mph83%29.80 "HgN/A
3:50 AM75 °FPassing clouds.1 mph83%29.83 "HgN/A
3:20 AM75 °FPassing clouds.5 mph83%29.83 "HgN/A
Weather by CustomWeather, © 2015

See weather overviewHow to use our weather pages